Flag for Norway Weather past 2 weeks in Førde, Norway

Now
49 °F

Cool.


Feels Like: 49 °F
Forecast: 47 / 59 °F
Wind: 1 mph from Southeast

Location: Dombestein

Current Time: Sep 20, 2014 at 2:35:39 AM

Latest Report: Sep 20, 2014 at 2:00 AM


Visibility: N/A

Pressure: 29.98 "Hg

Humidity: 81%

Dew point: 43 °F

Location of FørdeLocation

Historic Weather in Førde — Graph

°F

Førde temperature yesterday

Maximum temperature yesterday: 63 °F (at 3:00 PM)
Minimum temperature yesterday: 41 °F (at 7:00 AM)
Average temperature yesterday: 51 °F

Past Weeks' High & Low Weather Summary

 TemperatureHumidityPressure
High69 °F (Sep 15, 3:00 PM)97% (Sep 19, 8:00 AM)30.49 "Hg (Sep 19, 8:00 AM)
Low41 °F (Sep 10, 7:00 AM)39% (Sep 17, 3:00 PM)29.82 "Hg (Sep 8, 3:00 PM)
Average54 °F80%30.14 "Hg
* Reported Sep 5 1:00 AM — Sep 20 1:00 AM, Førde, Weather by CustomWeather, © 2014

Note: Actual official high and low records may vary slightly from our data, if they occured in-between our weather recording intervals... More about our weather records

Advertising

Førde weather history for previous 24 hours

 ConditionsComfort  
Time TempWeatherWind HumidityBarometerVisibility
1:00 AM
Sep 20
49 °FCool.1 mph82%30.00 "HgN/A
12:00 AM49 °FCool.1 mph81%30.01 "HgN/A
10:00 PM
Sep 19
47 °FCool.1 mph84%30.03 "HgN/A
9:00 PM49 °FCool.1 mph78%30.02 "HgN/A
8:00 PM51 °FCool.1 mph76%30.01 "HgN/A
7:00 PM54 °FCool.1 mph72%30.01 "HgN/A
6:00 PM58 °FRefreshingly cool.1 mph55%30.01 "HgN/A
5:00 PM60 °FRefreshingly cool.1 mph51%30.02 "HgN/A
4:00 PM62 °FRefreshingly cool.1 mph49%30.02 "HgN/A
3:00 PM63 °FMild.1 mph52%30.03 "HgN/A
2:00 PM62 °FRefreshingly cool.1 mph60%30.05 "HgN/A
1:00 PM60 °FCool.1 mph63%30.05 "HgN/A
12:00 PM56 °FCool.1 mph75%30.07 "HgN/A
11:00 AM58 °FCool.1 mph63%30.07 "HgN/A
10:00 AM53 °FCool.2 mph89%30.09 "HgN/A
9:00 AM47 °FCool.1 mph96%30.10 "HgN/A
8:00 AM45 °FQuite cool.1 mph97%30.11 "HgN/A
7:00 AM41 °FQuite cool.1 mph95%30.11 "HgN/A
6:00 AM42 °FQuite cool.1 mph96%30.11 "HgN/A
5:00 AM43 °FQuite cool.1 mph95%30.11 "HgN/A
4:00 AM43 °FQuite cool.1 mph96%30.12 "HgN/A
3:00 AM43 °FQuite cool.1 mph94%30.13 "HgN/A
2:00 AM44 °FQuite cool.1 mph95%30.13 "HgN/A
Weather by CustomWeather, © 2014

See weather overviewHow to use our weather pages